Probability
0 0 0 0 0 0 0 0 0 0 0 0 0 0 0 0 0 0 0 0 0 0 0 0 0 0 0 0 0 0 0 0 0 0 0 0 0 0 0 0 0 0 0 0 0 0 0 0 0
0 0 0 0 0 0 0 0 0 0 0 0 0 0 0 0 0 0 0 0 0 0 0 0 0 0 0 0 0 0 0 0 0 0 0 0 0 0 0 0 0 0 0 0 0 0 0 0 0
0 0 0 0 0 0 0 0 0 0 0 0 0 0 0 0 0 0 0 0 0 0 0 0 0 0 0 0 0 0 0 0 0 0 0 0 0 0 0 0 0 0 0 0 0 0 0 0 0
0 0 0 0 0 0 0 0 0 0 0 0 0 0 0 0 0 0 0 0 0 0 0 0 0 0 0 0 0 0 0 0 0 0 0 0 0 0 0 0 0 0 0 0 0 0 0 0 0
0 0 0 0 0 0 0 0 0 0 0 0 0 0 0 0 0 0 0 0 0 0 0 0 0 0 0 0 0 0 0 0 0 0 0 0 0 0 0 0 0 0 0 0 0 0 0 0 0
0 0 0 0 0 0 0 0 0 0 0 0 0 0 0 0 0 0 0 0 0 0 0 0 0 0 0 0 0 0 0 0 0 0 0 0 0 0 0 0 0 0 0 0 0 0 0 0 0
0 0 0 0 0 0 0 0 0 0 0 0 0 0 0 0 0 0 0 0 0 0 0 0 0 0 0 0 0 0 0 0 0 0 0 0 0 0 0 0 0 0 0 0 0 0 0 0 0
0 0 0 0 0 0 0 0 0 0 0 0 0 0 0 0 0 0 0 0 0 0 0 0 0 0 0 0 0 0 0 0 0 0 0 0 0 0 0 0 0 0 0 0 0 0 0 0 0
0 0 0 0 0 0 0 0 0 0 0 0 0 0 0 0 0 0 0 0 0 0 0 0 0 0 0 0 0 0 0 0 0 0 0 0 0 0 0 0 0 0 0 0 0 0 0 0 0
0 0 0 0 0 0 0 0 0 0 0 0 0 0 0 0 0 0 0 0 0 0 0 0 0 0 0 0 0 0 0 0 0 0 0 0 0 0 0 0 0 0 0 0 0 0 0 0 0
0 0 0 0 0 0 0 0 0 0 0 0 0 0 0 0 0 0 0 0 0 0 0 0 0 0 0 0 0 0 0 0 0 0 0 0 0 0 0 0 0 0 0 0 0 0 0 0 0
0 0 0 0 0 0 0 0 0 0 0 0 0 0 0 0 0 0 0 0 0 0 0 0 0 0 0 0 0 0 0 0 0 0 0 0 0 0 0 0 0 0 0 0 0 0 0 0 0
0 0 0 0 0 0 0 0 0 0 0 0 0 0 0 0 0 0 0 0 0 0 0 0 0 0 0 0 0 0 0 0 0 0 0 0 0 0 0 0 0 0 0 0 0 0 0 0 0
0 0 0 0 0 0 0 0 0 0 0 0 0 0 0 0 0 0 0 0 0 0 0 0 0 0 0 0 0 0 0 0 0 0 0 0 0 0 0 0 0 0 0 0 0 0 0 0 0
0 0 0 0 0 0 0 0 0 0 0 0 0 0 0 0 0 0 0 0 0 0 0 0 0 0 0 0 0 0 0 0 0 0 0 0 0 0 0 0 0 0 0 0 0 0 0 0 0
0 0 0 0 0 0 0 0 0 0 0 0 0 0 0 0 0 0 0 0 0 0 0 0 0 0 0 0 0 0 0 0 0 0 0 0 0 0 0 0 0 0 0 0 0 0 0 0 0
0 0 0 0 0 0 0 0 0 0 0 0 0 0 0 0 0 0 0 0 0 0 0 0 0 0 0 0 0 0 0 0 0 0 0 0 0 0 0 0 0 0 0 0 0 0 0 0 0
0 0 0 0 0 0 0 0 0 0 0 0 0 0 0 0 0 0 0 0 0 0 0 0 0 0 0 0 0 0 0 0 0 0 0 0 0 0 0 0 0 0 0 0 0 0 0 0 0
0 0 0 0 0 0 0 0 0 0 0 0 0 0 0 0 0 0 0 0 0 0 0 0 0 0 0 0 0 0 0 0 0 0 0 0 0 0 0 0 0 0 0 0 0 0 0 0 0
0 0 0 0 0 0 0 0 0 0 0 0 0 0 0 0 0 0 0 0 0 0 0 0 0 0 0 0 0 0 0 0 0 0 0 0 0 0 0 0 0 0 0 0 0 0 0 0 0
0 0 0 0 0 0 0 0 0 0 0 0 0 0 0 0 0 0 0 0 0 0 0 0 0 0 0 0 0 0 0 0 0 0 0 0 0 0 0 0 0 0 0 0 0 0 0 0 0
0 0 0 0 0 0 0 0 0 0 0 0 0 0 0 0 0 0 0 0 0 0 0 0 0 0 0 0 0 0 0 0 0 0 0 0 0 0 0 0 0 0 0 0 0 0 0 0 0
0 0 0 0 0 0 0 0 0 0 0 0 0 0 0 0 0 0 0 0 0 0 0 0 0 0 0 0 0 0 0 0 0 0 0 0 0 0 0 0 0 0 0 0 0 0 0 0 0
0 0 0 0 0 0 0 0 0 0 0 0 0 0 0 0 0 0 0 0 0 0 0 0 0 0 0 0 0 0 0 0 0 0 0 0 0 0 0 0 0 0 0 0 0 0 0 0 0
0 0 0 0 0 0 0 0 0 0 0 0 0 0 0 0 0 0 0 0 0 0 0 0 0 0 0 0 0 0 0 0 0 0 0 0 0 0 0 0 0 0 0 0 0 0 0 0 0
0 0 0 0 0 0 0 0 0 0 0 0 0 0 0 0 0 0 0 0 0 0 0 0 0 0 0 0 0 0 0 0 0 0 0 0 0 0 0 0 0 0 0 0 0 0 0 0 0
0 0 0 0 0 0 0 0 0 0 0 0 0 0 0 0 0 0 0 0 0 0 0 0 0 0 0 0 0 0 0 0 0 0 0 0 0 0 0 0 0 0 0 0 0 0 0 0 0
0 0 0 0 0 0 0 0 0 0 0 0 0 0 0 0 0 0 0 0 0 0 0 0 0 0 0 0 0 0 0 0 0 0 0 0 0 0 0 0 0 0 0 0 0 0 0 0 0
0 0 0 0 0 0 0 0 0 0 0 0 0 0 0 0 0 0 0 0 0 0 0 0 0 0 0 0 0 0 0 0 0 0 0 0 0 0 0 0 0 0 0 0 0 0 0 0 0
0 0 0 0 0 0 0 0 0 0 0 0 0 0 0 0 0 0 0 0 0 0 0 0 0 0 0 0 0 0 0 0 0 0 0 0 0 0 0 0 0 0 0 0 0 0 0 0 0
Wind_Speed
3 4 3 4 7 7 3 2 4 4 3 2 4 8 7 5 3 5 4 7 8 6 3 2 6 8 9 10 11 12 13 13 14 15 16 16 17 17 18 19 20 20 21 21 22 22 23 24 24
2 3 5 5 6 3 3 3 5 3 6 7 5 6 5 3 3 7 5 7 9 7 3 1 7 7 8 9 10 11 12 13 14 15 15 16 17 17 18 18 19 20 20 21 22 22 23 23 24
1 3 5 5 4 5 6 4 5 4 5 4 4 4 4 6 6 7 6 9 8 6 2 0 7 7 8 9 10 10 11 12 13 14 15 16 16 17 18 18 19 20 20 21 21 22 23 23 24
4 5 6 6 2 1 4 5 6 7 3 5 5 4 2 2 7 7 8 9 9 6 3 1 7 6 7 7 8 9 10 11 12 14 15 16 16 17 18 18 19 20 20 21 21 22 23 23 23
4 5 6 4 1 2 1 6 7 6 5 4 6 5 2 1 5 9 10 10 9 6 3 2 6 5 5 6 7 8 9 11 12 14 15 16 16 17 17 18 19 20 20 21 22 22 23 23 23
5 5 5 3 2 1 2 4 5 5 5 5 7 7 4 3 7 9 9 8 8 7 4 2 5 5 4 5 6 7 8 10 12 13 14 16 16 17 17 18 19 20 21 21 22 23 23 24 24
5 5 4 7 5 4 6 5 7 6 6 8 10 8 3 5 7 9 9 8 7 7 5 4 4 4 5 5 5 6 8 9 11 12 13 15 16 17 18 19 20 20 20 21 21 22 23 23 24
5 6 5 5 6 6 6 5 5 7 5 6 9 10 8 10 9 8 8 7 7 6 6 5 4 3 2 3 4 6 6 8 9 11 12 13 15 15 17 17 19 20 20 20 21 22 22 23 23
4 6 4 8 8 7 7 5 2 2 6 4 3 6 7 14 12 9 6 5 6 6 5 5 4 3 2 0 3 4 5 6 7 7 10 9 4 5 8 15 18 19 19 19 20 21 21 21 20
5 4 7 4 5 8 8 7 8 5 4 3 1 1 8 16 15 13 10 9 8 8 6 5 6 4 2 1 2 1 1 2 2 2 3 2 3 4 8 14 17 17 17 17 18 20 18 14 8
4 4 3 1 2 7 8 7 7 9 7 10 10 9 14 15 15 15 13 11 10 9 8 7 6 5 4 2 1 1 0 1 1 1 2 2 2 3 4 3 6 7 10 6 9 9 6 6 6
5 2 1 1 2 6 9 8 5 9 10 8 11 17 18 17 18 17 14 11 9 8 8 8 7 6 5 3 2 2 1 1 1 0 1 2 1 2 2 2 3 3 3 4 4 4 6 6 6
3 1 1 2 4 5 7 6 5 8 6 4 11 16 18 18 15 12 10 11 10 11 10 9 8 7 5 4 2 2 2 2 2 1 1 2 1 0 1 2 2 3 3 3 4 4 6 6 6
3 3 2 3 3 2 4 4 4 9 6 9 14 16 17 17 16 12 10 13 14 12 11 9 9 8 6 4 3 3 3 2 2 2 2 3 2 2 1 2 3 3 3 3 4 5 5 5 5
4 4 2 1 0 0 1 6 10 6 9 10 13 14 15 15 15 15 13 14 14 13 11 10 9 8 7 6 5 3 3 2 3 3 3 4 4 3 2 2 3 3 3 4 4 5 4 5 6
3 2 2 4 4 2 4 10 9 8 11 12 12 12 14 15 15 13 13 12 13 13 12 11 10 9 8 6 5 3 3 3 3 3 3 4 4 4 3 3 3 4 3 3 4 3 4 5 6
1 2 4 4 6 5 6 12 6 6 11 12 12 13 14 14 15 14 14 14 15 15 14 12 10 10 8 7 5 4 3 3 3 3 3 4 5 4 3 3 4 4 3 3 5 4 4 5 7
4 4 5 6 6 6 7 15 11 6 11 12 12 12 14 17 19 14 14 14 14 14 13 13 11 10 8 5 3 2 2 2 3 3 4 5 4 5 4 3 4 4 3 3 3 5 5 5 6
3 4 6 6 4 7 11 17 16 8 11 13 12 13 16 20 15 11 13 13 12 13 13 14 12 10 7 4 3 3 3 3 3 3 5 5 5 5 4 4 4 3 3 4 5 4 5 4 4
3 3 4 3 3 6 7 14 15 9 12 14 16 17 19 16 12 13 13 14 16 17 16 15 14 12 11 6 5 4 3 3 3 3 4 5 5 5 4 4 4 4 3 4 5 4 3 4 4
3 3 4 3 2 3 5 12 9 5 6 8 10 13 13 17 17 15 16 17 17 19 19 17 15 14 11 8 4 3 2 1 2 3 3 4 5 5 4 4 4 4 3 4 5 5 5 5 5
4 2 1 1 2 5 1 7 11 5 5 8 13 13 15 16 15 15 16 17 20 20 16 15 15 13 12 11 8 7 6 5 5 4 3 4 5 5 5 5 5 4 4 5 6 5 4 5 6
4 1 0 0 1 4 3 4 13 3 7 12 13 15 17 16 15 16 18 20 19 16 15 14 14 14 12 11 11 8 7 5 4 3 5 5 4 5 5 5 5 5 4 6 6 6 6 5 6
3 3 3 4 3 5 6 7 12 7 10 9 9 11 15 14 14 14 13 12 13 12 13 13 15 14 13 13 11 10 10 8 6 6 5 4 3 4 5 5 5 5 5 6 6 6 7 6 7
3 4 3 4 2 8 3 5 15 11 10 10 11 11 12 11 11 12 12 13 14 16 16 15 16 15 14 13 12 11 11 9 9 8 6 5 4 4 6 6 5 5 6 7 7 6 7 7 7
4 6 6 4 5 7 4 9 14 9 8 9 9 8 8 9 10 12 14 15 15 17 17 17 18 15 15 14 13 10 10 7 7 8 6 6 5 5 6 6 6 7 7 8 6 6 7 7 7
4 5 6 5 3 5 9 10 14 6 6 6 7 7 9 10 10 11 11 12 14 17 19 19 18 15 15 14 12 10 10 9 8 8 7 5 5 5 7 6 7 7 7 7 7 6 8 8 8
3 4 5 4 4 7 9 8 9 8 9 9 9 10 12 10 9 10 10 12 13 14 14 14 16 16 14 13 12 11 10 9 8 7 7 7 7 7 6 7 7 7 7 7 7 7 8 9 10
5 4 5 4 4 5 7 12 9 9 9 11 14 13 13 12 12 12 11 11 10 10 12 14 14 13 13 13 12 10 10 9 8 7 8 7 7 7 7 7 7 7 8 8 7 9 9 10 11
7 8 8 6 7 6 5 14 9 9 10 9 12 11 10 10 10 9 9 8 10 12 13 15 15 15 14 13 12 11 9 9 8 8 8 7 7 7 7 7 7 8 8 8 8 10 11 10 12
Wind_Direction
74 94 72 58 56 56 107 164 149 123 88 64 78 93 102 109 148 159 153 137 125 108 70 14 78 70 62 55 48 44 39 36 33 30 27 25 25 24 23 20 18 16 14 12 10 8 7 5 3
87 107 57 61 83 101 214 170 144 152 144 134 94 89 87 84 93 121 153 145 123 115 91 26 91 78 67 58 50 44 40 36 33 30 27 25 24 23 23 20 17 15 14 13 10 8 7 5 3
44 90 82 73 93 174 199 176 154 127 131 118 83 67 109 145 143 161 164 142 120 118 109 118 100 85 71 60 52 44 38 36 33 30 27 25 24 23 23 19 17 15 14 13 11 10 8 6 4
65 54 54 69 89 301 188 172 151 128 101 82 105 94 82 138 167 164 144 132 125 133 140 159 110 95 77 62 52 45 38 35 33 30 27 26 23 22 24 18 16 15 14 13 12 11 9 8 7
66 80 66 63 39 355 117 149 142 132 141 113 118 129 134 350 132 131 137 137 139 153 171 186 117 101 85 67 52 46 38 35 33 30 28 26 22 20 23 17 16 15 14 13 12 11 10 10 7
63 73 90 153 150 97 168 173 141 127 137 129 128 142 189 172 139 144 146 147 149 154 155 71 102 88 72 60 52 45 40 36 33 29 29 26 21 18 22 16 15 14 12 12 10 9 9 8 5
98 93 131 160 159 184 201 173 155 148 159 177 151 140 193 210 185 155 147 146 146 145 134 108 78 58 45 32 44 43 41 36 33 28 28 27 21 18 20 14 12 12 10 9 8 7 7 5 3
115 101 110 160 171 208 182 153 167 158 174 150 142 153 198 202 184 150 144 145 144 142 140 136 121 102 65 2 24 41 38 34 33 25 27 29 24 19 18 11 10 10 8 7 5 4 4 3 359
88 85 167 195 185 198 178 146 127 127 131 133 179 194 198 157 156 145 148 156 159 156 155 152 143 126 103 214 53 36 31 30 39 26 27 36 21 6 20 6 9 7 5 4 1 360 360 359 353
67 139 196 201 199 177 176 157 155 139 155 174 159 27 134 149 163 168 174 177 175 176 178 170 157 149 141 121 83 40 52 51 65 72 56 51 31 12 26 9 7 4 1 359 355 354 355 351 339
71 150 169 331 171 151 149 153 158 146 202 210 195 173 155 164 175 183 186 181 180 179 179 175 167 160 161 173 180 156 129 99 59 65 79 62 47 25 22 12 0 353 354 349 344 342 332 322 321
82 44 102 10 120 140 154 159 184 195 215 211 180 164 166 176 186 192 191 185 175 177 182 179 169 165 176 183 191 183 177 176 185 194 111 89 60 26 3 351 332 330 324 318 316 308 309 308 307
100 130 25 45 92 126 139 174 212 233 231 159 149 163 178 187 194 198 192 181 175 182 183 180 169 172 178 182 204 179 191 194 198 196 172 140 133 111 309 302 303 302 298 299 300 301 302 305 304
118 95 60 39 60 103 153 219 251 245 164 147 162 180 190 195 196 195 189 184 184 185 183 177 173 175 174 179 195 205 205 203 196 200 201 178 174 199 236 275 287 287 284 283 286 292 297 295 295
95 80 4 290 210 172 103 266 238 225 151 170 185 192 198 204 202 202 195 187 186 185 180 178 177 175 175 184 200 200 206 201 203 206 206 198 195 205 218 247 269 273 277 286 290 293 295 306 311
94 69 290 241 197 173 158 258 253 179 168 191 199 202 207 211 211 207 197 189 185 181 180 183 179 173 178 184 195 200 202 201 208 208 212 212 212 211 216 238 259 268 276 282 290 288 304 304 303
15 278 267 258 194 172 195 250 269 175 186 203 207 209 213 217 219 213 201 192 186 183 181 184 177 173 179 182 185 192 195 204 211 215 220 223 223 222 219 237 254 268 274 280 301 319 300 302 306
235 230 253 252 208 176 220 256 265 200 208 217 214 214 217 221 221 211 203 195 188 185 183 182 179 177 172 166 167 180 204 217 222 226 229 227 226 231 231 243 257 267 273 281 285 293 293 289 296
223 234 259 260 189 186 234 259 269 217 215 229 225 220 223 228 224 208 202 193 186 185 185 184 182 180 167 159 169 185 213 221 239 239 232 225 227 235 238 259 266 267 266 274 285 288 295 293 296
237 269 274 281 191 205 265 273 268 221 210 219 221 222 225 230 223 212 201 194 193 192 191 188 187 183 180 175 168 172 177 203 219 233 230 226 230 238 249 248 257 265 270 282 288 290 283 290 311
262 242 254 276 339 264 308 299 284 252 220 231 227 225 226 225 223 214 206 201 199 198 195 193 190 185 183 173 153 153 150 225 234 228 229 235 239 246 251 256 256 262 256 265 275 278 274 290 294
255 213 213 290 339 293 229 294 289 267 260 245 237 230 232 229 224 216 209 204 204 203 195 192 186 184 181 172 171 172 185 203 215 212 222 242 247 249 249 254 257 259 255 259 271 286 270 277 292
216 158 152 121 215 301 245 230 279 281 263 256 242 232 233 229 221 218 212 209 206 198 191 189 183 184 180 179 180 180 196 206 213 220 236 244 248 248 252 254 255 255 252 257 264 274 268 261 270
120 65 51 49 66 284 226 189 273 237 220 241 242 231 230 228 222 222 215 204 199 189 187 184 184 186 183 183 183 187 195 201 210 222 232 239 241 248 252 253 249 250 252 257 261 261 262 260 263
103 85 354 328 327 256 226 211 251 245 224 221 226 230 228 222 216 215 206 200 195 188 189 188 188 189 186 187 190 194 196 197 207 214 222 228 234 238 248 252 249 250 250 255 257 257 259 258 261
184 154 177 235 251 285 283 238 254 256 249 236 238 241 236 226 216 215 210 202 197 192 190 189 192 191 188 191 196 196 194 196 206 210 209 217 224 234 242 244 245 248 253 262 259 260 260 263 259
183 203 181 162 261 271 268 277 295 268 265 239 235 241 242 235 224 220 211 201 196 193 194 193 192 191 192 194 193 195 195 197 204 207 210 218 227 238 241 241 246 251 254 257 258 259 261 264 264
205 155 116 154 230 264 280 268 254 273 256 248 242 239 245 244 239 229 215 206 201 198 194 192 193 194 191 191 194 198 198 200 201 202 212 220 230 238 246 249 250 254 256 258 258 261 263 264 268
168 190 186 183 191 200 264 265 232 238 244 237 236 235 238 238 234 229 220 209 197 188 189 193 195 194 193 194 195 194 193 197 198 205 215 221 229 233 239 245 250 255 258 259 259 263 267 266 272
186 197 166 183 236 211 235 266 260 251 261 246 245 244 243 241 238 230 216 196 192 195 196 197 198 199 198 194 192 196 192 192 199 210 216 220 228 231 236 244 252 258 263 260 259 267 275 271 274